Regional Weather Roundup
Issued by NWS

Home | Current Version | Previous Version | Text Only | Print | Product List | Glossary On
Versions: 1 2 3 4 5 6 7 8 9 10 11 12 13 14 15 16 17 18 19 20 21 22 23 24 25 26 27 28 29 30 31 32 33 34 35 36 37 38 39 40 41 42 43 44 45 46 47 48 49 50
000
ASCA42 TJSJ 130011
RWRPR
PUERTO RICO/U.S. VIRGIN ISLANDS HOURLY WEATHER ROUNDUP
NATIONAL WEATHER SERVICE SAN JUAN PR
800 PM AST SAT JUL 12 2014

PRZ001-004-130100-
PUERTO RICO

CITY           SKY/WX    TMP DP  RH WIND       PRES   REMARKS
SAN JUAN LMM   PTCLDY    82  75  78 E8        30.07R
AGUADILLA      CLEAR     79  73  83 E12       30.07R
CEIBA          CLOUDY    82  73  74 E7        30.08R
$$

PRZ006-007-130100-
U.S. VIRGIN ISLANDS

CITY           SKY/WX    TMP DP  RH WIND       PRES   REMARKS
CHARLOTTE AMA  PTCLDY    84  75  74 NE7       30.05R HX  92
CHRISTIANSTED  CLEAR     81  70  69 NE5       30.07R
$$

HOURLY WEATHER ROUNDUP FOR THE NEWS MEDIA

CITY           SKY/WX    TMP DP  RH WIND       PRES   REMARKS
MIAMI          MOCLDY    80  73  79 W12G22    30.10R
ORLANDO        CLOUDY    78  72  81 NE9       30.12F
NEW YORK       PTCLDY    73  68  84 S18G24    30.16F
NEWARK         PTCLDY    81  59  47 S10G20    30.13R
CHICAGO        CLOUDY    79  70  74 SW3       29.93F
HARTFORD       CLEAR     70  62  76 S12       30.15S
BOSTON         PTCLDY    77  63  61 S10       30.12R
DALLAS         SUNNY     95  61  32 S9        30.03F HX  95
PHILADELPHIA   PTCLDY    82  57  42 S16       30.14S



USA.gov is the U.S. government's official web portal to all federal, state and local government web resources and services.